Wind_Speed
46 51 54 56 54 53 52 51 50 48 46 41 39 36 33 30 28 28 28 27 26 25 26 28 29 32 36 37 35 32 32 32 34 34 30 24 21 26 35 34 28 25 22 20 23 25 26 25 25 26 26 26 26 24 23 21 20 19 16 15 14 13 11 11 10 9 9 11 12 12 13 15 16 17 17 17 17 16 16 16 16 16 15 16 15 14 15 13
45 50 53 55 53 53 52 51 50 48 46 42 40 37 34 31 29 29 29 28 27 25 25 27 29 32 35 36 33 31 32 32 34 34 26 24 25 27 30 28 26 27 24 22 23 25 25 24 24 25 25 25 25 24 23 21 20 19 17 14 13 12 11 11 11 10 9 10 11 12 13 14 15 16 17 17 17 17 17 17 17 17 16 16 16 15 15 14
43 49 52 54 52 52 51 50 50 48 46 43 40 37 34 32 30 30 31 30 27 25 25 26 29 31 34 35 34 33 32 33 36 33 26 26 29 26 23 23 25 25 25 24 24 26 26 24 24 25 25 25 25 24 23 22 20 19 17 13 12 12 11 11 11 10 9 10 11 13 14 15 15 17 18 17 18 18 18 17 17 17 16 16 16 16 15 15
43 49 52 53 51 51 51 50 49 48 45 43 40 37 35 33 31 33 33 31 28 26 24 25 27 30 32 33 35 34 33 35 37 30 27 28 29 28 20 21 26 26 26 27 26 27 27 25 25 25 25 25 25 24 23 22 20 19 17 14 13 12 12 12 10 9 9 9 9 12 14 15 15 17 18 18 19 19 18 17 16 16 16 16 16 16 16 15
43 49 51 52 51 51 50 49 48 46 45 43 40 37 35 33 32 35 35 33 30 27 25 24 26 28 30 31 33 34 33 34 32 29 29 28 28 29 18 19 25 27 28 28 27 28 28 27 26 26 25 25 25 24 23 22 21 18 17 16 14 13 12 12 10 9 9 8 8 10 13 14 14 15 16 17 18 18 18 19 19 19 19 18 17 17 17 16
43 49 51 52 51 50 50 48 46 45 43 41 39 37 35 34 34 37 37 34 31 28 26 25 26 27 28 29 31 33 33 28 25 29 30 26 29 28 15 16 23 27 28 28 29 29 29 29 28 27 26 25 25 25 23 22 21 18 17 17 15 14 13 11 10 10 9 8 8 10 12 13 14 14 15 16 17 19 21 22 22 22 21 20 19 19 18 17
44 49 52 51 50 50 49 47 45 44 42 40 39 37 36 35 36 38 39 36 32 29 26 25 26 26 26 28 30 31 32 26 20 25 28 26 31 27 14 15 21 26 28 28 29 29 29 29 28 27 26 26 26 25 23 21 21 19 17 17 16 14 14 12 10 10 9 9 9 8 11 12 13 14 15 15 17 20 21 22 22 21 20 20 19 19 19 18
44 49 52 52 50 50 49 47 45 43 42 40 38 36 36 37 37 40 40 37 34 31 27 24 25 26 26 26 27 28 29 26 19 20 24 28 34 26 14 15 19 25 27 27 28 28 28 28 27 27 25 26 26 25 24 21 21 21 18 17 17 15 14 13 11 11 11 10 9 7 8 11 13 14 15 16 18 19 20 21 21 20 20 19 18 17 18 17
46 50 52 52 51 50 49 47 45 43 41 39 37 36 37 38 38 40 42 39 35 32 27 25 25 25 26 24 25 26 25 23 20 19 23 32 36 26 16 16 19 24 26 27 28 28 28 28 27 25 24 25 26 26 25 22 20 22 20 17 17 16 15 14 12 11 11 11 10 8 8 10 12 14 15 18 19 19 20 21 20 20 19 19 18 17 17 17
47 50 53 53 52 50 49 47 45 43 41 38 37 36 37 38 38 40 42 40 36 32 27 26 25 24 24 24 25 25 20 20 20 20 26 35 35 25 19 18 19 23 25 26 28 27 27 26 25 24 23 24 26 26 25 24 21 22 21 19 17 16 16 15 13 11 11 12 11 10 9 9 12 14 17 18 18 18 19 19 19 18 19 19 19 18 18 17
47 51 54 54 52 51 49 48 46 43 40 38 36 35 37 38 38 40 42 41 36 32 29 27 25 23 23 23 23 21 18 21 22 24 29 35 33 25 22 21 20 23 25 26 27 26 25 26 26 25 23 23 25 25 24 25 23 21 21 20 19 17 17 16 15 13 12 12 12 12 11 11 13 14 17 18 17 17 18 17 17 18 19 19 20 20 20 19
47 51 55 54 52 52 50 48 46 43 40 37 35 35 36 37 37 39 42 41 37 33 30 28 25 24 24 22 18 17 20 23 25 28 30 32 30 25 24 23 23 24 25 26 25 25 26 26 27 25 23 23 24 24 24 25 24 22 21 21 21 19 18 18 17 15 14 14 14 14 13 15 15 13 15 18 17 17 18 18 18 19 20 20 21 21 20 20
47 52 56 55 54 52 51 49 46 42 39 37 35 35 36 37 37 39 42 42 37 34 31 29 27 27 26 21 17 19 23 25 26 29 29 30 30 25 24 24 24 24 25 26 25 26 26 25 26 25 24 22 23 23 23 25 24 22 22 21 21 21 20 20 18 17 16 15 15 14 14 16 14 12 15 18 17 18 19 19 20 20 21 21 21 20 20 20
48 54 56 56 55 53 52 49 46 43 40 37 36 35 36 36 37 39 42 42 38 35 32 31 30 29 27 22 19 21 24 26 28 29 27 29 30 24 23 24 23 23 24 24 25 25 26 25 25 25 25 22 22 23 22 24 25 25 23 22 23 22 22 23 21 19 18 17 17 16 16 16 13 13 17 17 17 18 19 20 21 21 21 21 21 20 20 19
48 55 58 58 56 54 52 49 46 43 40 38 36 35 35 36 37 39 42 43 39 36 34 34 34 32 29 26 23 22 24 27 31 30 26 29 30 22 20 22 22 22 23 24 24 25 24 25 25 25 26 23 21 22 21 22 25 26 22 22 26 23 21 25 23 22 21 19 19 18 18 18 16 14 15 16 17 18 20 21 22 22 22 22 22 21 20 20
49 55 59 59 57 55 52 49 46 44 41 39 37 35 36 37 38 39 43 44 41 38 37 37 36 34 31 29 26 24 25 27 32 32 26 29 30 21 17 21 22 22 23 24 24 24 24 24 25 25 26 25 22 22 22 21 24 28 25 22 27 26 24 24 24 24 23 21 22 20 20 18 16 15 15 16 17 18 20 21 22 23 23 23 22 22 21 21
49 55 59 58 57 55 52 50 47 44 42 39 38 37 37 38 38 39 42 45 43 41 40 39 36 34 32 30 29 28 26 26 33 34 27 29 29 20 17 20 22 22 23 24 23 24 23 24 26 26 26 27 24 23 22 22 26 29 27 24 25 27 27 25 24 25 24 24 24 23 24 21 16 14 15 17 18 18 20 21 22 23 23 23 23 23 23 22
49 55 58 58 57 55 52 51 48 45 43 41 39 37 37 38 38 39 42 46 46 43 41 40 39 37 35 35 32 29 26 25 33 36 31 29 26 19 17 18 21 23 23 24 23 24 24 24 25 25 27 28 27 28 25 25 28 28 27 26 25 26 28 28 26 25 25 26 25 25 26 24 20 16 15 17 18 19 20 22 23 23 23 23 24 24 23 23
48 54 57 58 57 55 53 50 48 46 44 42 40 39 38 39 39 39 41 47 50 49 47 47 48 44 38 37 34 28 26 26 32 38 34 29 24 19 18 18 21 23 23 24 24 24 25 25 26 27 30 32 31 30 28 25 26 24 25 26 29 30 30 30 30 27 25 25 25 26 26 25 22 20 18 17 19 20 22 23 24 23 23 23 23 23 23 22
47 54 56 58 56 55 53 50 48 46 45 44 43 43 43 44 44 44 44 47 51 52 52 51 51 47 37 32 32 29 28 29 34 39 36 29 22 19 19 19 21 23 24 25 24 25 25 26 30 32 32 32 29 27 25 23 21 21 23 26 29 31 30 29 29 28 24 22 23 24 25 25 23 22 22 20 21 22 23 24 24 23 23 23 24 23 23 22
47 53 56 57 55 54 52 50 49 47 45 43 43 44 45 47 48 48 49 49 49 50 50 48 46 45 37 28 30 31 30 31 36 39 37 30 22 20 21 21 22 25 25 25 24 24 26 29 31 31 29 27 26 25 24 22 21 21 22 24 28 29 29 28 26 25 24 23 24 24 25 27 25 23 23 24 26 25 24 24 24 24 24 24 24 24 23 23
48 53 55 55 54 53 51 50 49 47 45 43 42 42 42 44 43 42 47 49 47 46 45 42 41 43 36 25 27 32 32 33 37 41 39 32 25 22 23 22 22 24 25 25 25 24 27 31 31 28 26 25 25 26 25 24 24 23 23 23 26 27 26 24 24 23 22 23 25 26 28 29 27 25 24 25 29 27 25 25 25 25 26 25 25 24 24 24
49 53 54 53 52 51 51 50 48 46 45 43 42 42 40 42 39 37 41 45 45 43 41 37 36 38 34 24 24 32 33 33 38 43 41 34 28 24 24 24 22 22 24 26 27 27 27 28 28 26 25 26 26 26 26 25 25 24 23 21 24 26 23 21 23 23 23 24 25 25 28 30 28 26 25 25 28 29 26 26 26 26 26 25 25 25 25 25
49 52 53 53 51 50 50 49 47 46 44 42 42 41 40 40 38 36 39 41 41 40 37 34 33 35 33 24 23 30 33 33 37 43 42 35 29 25 24 24 22 22 24 26 26 28 28 25 25 25 25 26 26 27 27 26 27 26 24 21 21 21 21 21 21 21 22 23 24 23 23 29 30 26 26 25 27 30 28 27 27 26 26 25 25 27 26 26
50 51 52 52 51 50 49 48 48 46 44 43 43 41 40 41 38 34 37 37 35 36 35 31 30 33 33 27 24 29 32 32 35 40 41 34 27 26 25 24 23 23 23 25 25 26 28 25 23 24 26 27 27 28 29 28 28 27 26 24 20 16 16 18 18 17 18 19 23 21 13 19 28 27 27 27 28 29 29 29 28 26 25 26 26 26 27 27
50 51 52 52 52 51 50 50 48 46 45 44 44 42 41 42 37 33 35 32 30 35 35 31 30 33 34 28 24 28 29 31 35 38 39 34 27 26 26 26 26 24 22 23 24 25 27 27 25 24 25 27 29 28 29 29 28 28 27 25 22 19 17 17 17 15 13 13 18 20 14 12 20 23 23 26 28 29 29 29 28 27 27 27 26 26 27 28
50 52 52 53 53 52 52 51 49 48 48 46 45 43 42 41 36 33 30 18 18 33 37 34 31 32 37 32 26 27 28 32 37 37 37 34 30 28 27 28 28 26 24 23 24 25 27 28 28 27 24 25 30 30 29 28 28 28 27 24 21 22 21 18 17 16 14 13 13 16 18 14 18 23 22 21 24 27 29 30 28 28 28 27 28 28 29 29
50 51 53 54 53 52 51 49 49 49 47 47 46 44 42 39 34 33 23 7 11 29 36 37 33 31 36 35 29 27 28 33 37 36 35 32 31 31 29 29 28 26 26 24 26 26 25 27 28 28 26 24 27 29 28 26 27 28 26 23 20 19 19 18 17 17 16 14 11 15 17 11 16 27 25 21 22 24 27 29 28 27 28 28 28 29 30 30
49 52 54 54 53 52 49 46 46 46 44 46 46 43 41 35 32 30 15 3 13 27 33 37 35 32 35 37 35 30 26 31 37 37 36 32 31 32 30 29 27 25 25 25 27 27 24 24 25 27 28 27 25 25 26 27 27 27 24 21 19 16 16 16 15 16 14 11 12 16 18 10 12 24 26 23 25 25 25 25 25 26 27 28 29 30 30 31
49 53 54 55 56 53 51 48 44 44 45 45 45 44 39 34 34 24 7 9 19 25 31 37 38 36 36 38 39 36 28 28 34 36 36 33 31 31 30 28 27 24 24 24 25 26 25 23 23 25 28 30 26 22 23 27 27 26 23 19 17 15 15 15 13 13 9 8 12 16 19 13 8 15 22 25 26 26 23 22 23 25 26 27 28 29 30 30
47 52 54 55 55 53 53 51 48 48 47 47 47 45 40 37 34 18 5 17 24 23 32 39 41 39 39 41 42 41 34 28 31 35 36 36 33 33 33 29 27 24 22 25 25 25 25 23 23 25 28 30 29 24 22 25 28 25 23 21 16 11 10 9 10 11 7 5 9 15 18 16 12 12 14 18 22 22 22 22 23 25 25 25 26 26 28 29
47 50 51 53 53 52 51 49 49 49 47 49 47 45 44 35 26 18 15 22 21 24 36 41 44 44 42 42 41 42 38 31 32 34 35 38 35 36 36 32 31 26 21 25 25 23 25 25 25 24 26 28 28 26 22 23 27 26 24 23 16 8 7 7 6 6 7 4 6 12 14 15 22 25 19 15 14 14 18 22 24 25 26 25 25 25 26 27
46 48 47 50 51 51 50 47 48 49 48 49 46 46 44 26 20 30 31 26 19 26 39 41 44 47 42 41 40 40 39 33 33 33 32 35 35 35 36 34 35 29 24 25 24 21 18 20 25 25 24 26 26 27 27 26 28 29 28 27 18 8 4 6 4 1 5 6 8 11 10 11 22 27 25 23 19 15 16 18 21 22 23 24 25 25 26 27
43 45 46 49 51 51 51 48 48 50 50 50 48 47 38 20 27 41 37 30 21 23 36 39 43 45 41 42 41 40 40 34 33 35 32 33 34 36 37 36 36 33 30 28 25 24 17 14 23 27 24 24 26 28 28 27 28 29 30 28 23 17 9 5 5 3 1 4 9 11 7 8 11 11 13 16 20 22 20 17 18 19 20 22 23 25 26 27
39 42 43 48 51 51 52 49 49 51 51 52 51 47 38 32 41 46 43 40 28 24 35 38 41 44 41 42 41 40 41 37 35 36 34 35 36 37 39 39 38 36 33 28 25 27 24 18 24 29 27 25 24 26 26 24 25 28 30 28 27 25 14 4 5 6 3 4 6 11 11 15 15 11 9 7 11 19 22 23 24 23 22 22 22 23 24 25
36 38 40 46 51 52 53 51 50 51 52 53 52 49 49 49 47 46 48 47 34 29 37 36 38 44 42 40 41 40 42 39 37 37 35 36 36 34 36 37 38 39 37 31 25 24 23 20 21 25 29 28 24 25 28 25 24 27 31 31 30 27 18 7 4 4 4 3 6 10 15 22 21 18 18 15 12 11 12 17 21 22 21 20 21 22 23 24
38 38 41 46 50 51 54 53 51 52 52 54 54 54 58 54 45 42 46 47 36 28 36 39 37 43 44 42 42 43 43 39 38 38 36 35 35 36 36 34 36 38 38 36 30 26 24 22 22 22 24 28 26 24 28 28 26 26 32 35 31 25 21 14 4 3 3 3 4 10 16 21 17 14 16 18 19 17 13 13 15 17 18 18 20 22 23 24
43 41 42 45 48 50 53 54 52 53 52 54 57 57 57 51 43 39 41 46 39 27 33 41 39 41 46 45 43 44 43 39 38 40 38 35 35 38 39 36 35 36 37 37 33 29 27 21 20 22 23 25 27 25 26 29 28 26 28 33 27 17 17 18 9 2 4 3 2 7 14 20 22 20 14 8 10 15 16 17 17 17 18 18 19 21 23 24
45 41 40 42 46 48 51 54 53 53 54 57 59 59 55 49 44 41 40 44 41 31 32 39 39 40 44 45 45 46 44 42 42 41 38 36 35 39 43 39 35 35 37 39 36 32 29 21 15 20 24 23 26 29 29 30 31 26 23 28 28 18 14 19 16 8 5 3 3 4 6 14 26 30 24 13 10 12 16 18 19 17 18 19 20 22 24 25
47 44 41 41 44 47 51 54 53 54 56 61 64 60 54 48 45 42 38 39 42 37 32 35 38 39 41 43 43 44 46 44 44 43 40 38 37 38 43 42 38 36 35 38 39 35 31 24 17 17 21 23 24 29 32 33 33 31 27 28 31 25 16 15 19 17 9 3 2 3 4 11 19 19 16 12 10 13 17 19 20 19 19 20 21 23 24 25
48 46 43 40 41 46 52 55 55 58 61 63 65 58 49 45 44 41 36 36 41 42 37 33 34 35 38 41 40 42 45 44 44 44 42 42 41 39 42 45 43 39 37 38 41 38 32 27 22 19 22 25 27 29 32 33 33 34 34 32 33 32 24 12 10 18 17 9 4 3 4 11 16 12 9 8 8 11 13 14 16 18 19 21 22 23 25 25
49 49 46 43 42 46 53 58 59 62 64 64 63 56 48 45 43 41 39 37 37 40 39 34 31 31 32 36 38 38 41 44 45 44 44 45 46 43 41 43 44 41 38 38 40 40 37 30 24 21 23 25 26 28 30 32 33 34 34 34 32 32 31 20 11 16 20 15 10 5 4 17 26 21 17 18 16 12 9 9 11 13 16 20 22 23 25 27
50 49 47 47 47 47 52 58 60 61 64 64 62 56 49 45 42 42 42 40 37 39 40 38 34 31 30 31 35 36 37 41 43 45 47 47 47 44 38 38 42 41 36 34 36 40 37 31 25 19 18 22 24 25 28 30 32 34 34 36 34 33 35 32 24 21 18 16 15 6 4 24 35 28 25 22 13 9 11 11 12 12 15 18 20 23 26 28
54 50 49 52 51 49 51 57 63 66 66 64 60 54 49 44 41 43 44 43 41 40 40 40 38 35 33 30 30 31 33 35 38 43 46 45 46 45 40 36 38 39 38 35 35 37 33 30 27 16 7 10 15 15 19 25 30 34 36 37 38 37 37 35 30 24 15 17 20 11 9 29 36 28 25 18 11 13 14 13 12 12 14 16 18 23 26 28
54 50 51 56 55 53 54 57 63 67 66 62 56 51 47 43 41 42 44 44 43 42 40 40 39 38 36 31 28 28 29 30 33 36 40 43 45 44 42 39 36 37 39 36 33 33 33 34 33 22 10 7 10 13 20 27 31 35 37 39 40 40 39 37 33 25 17 20 24 19 21 36 39 33 27 17 14 15 12 9 10 10 12 15 18 22 25 27
50 45 47 51 50 52 55 56 59 64 65 62 55 50 45 42 40 39 39 41 43 43 41 39 39 38 36 34 32 30 29 30 31 31 33 37 41 43 42 41 39 35 34 36 34 31 31 35 37 35 31 27 27 31 35 37 37 37 37 38 39 41 42 40 33 29 29 28 28 31 36 41 42 39 32 22 19 18 17 16 17 15 15 15 17 21 23 25
47 42 45 45 40 42 49 53 56 60 64 63 57 52 48 44 40 38 37 39 41 43 42 41 40 40 40 39 37 34 32 32 32 33 30 29 33 38 40 40 39 35 31 33 37 35 31 32 35 37 39 39 39 40 40 39 40 41 40 39 40 41 44 43 38 38 38 28 25 36 44 44 44 43 37 31 28 28 28 26 22 19 18 17 18 20 22 25
42 41 44 45 38 37 46 53 56 57 60 61 57 52 49 46 44 42 42 41 40 42 42 41 41 43 43 43 40 37 34 32 32 34 33 30 30 32 36 38 37 37 32 30 36 40 35 31 32 35 37 39 39 38 38 37 36 38 39 40 40 41 43 45 43 44 43 34 31 39 43 43 44 40 36 36 35 34 32 26 21 20 20 19 20 21 22 24
37 40 44 45 38 38 46 51 51 51 54 57 56 51 48 48 48 47 47 45 43 42 43 43 43 43 42 42 41 39 38 36 37 37 36 35 32 30 32 33 33 36 35 31 33 38 37 34 32 33 35 38 38 38 39 37 34 33 35 36 37 38 40 42 42 42 44 43 42 41 40 44 42 36 35 35 34 34 32 24 20 22 22 22 23 23 24 25
31 38 44 47 41 36 42 47 46 47 51 53 54 52 48 47 49 48 47 47 47 46 46 46 45 43 41 40 39 40 40 39 39 39 38 37 37 34 30 29 30 32 34 33 32 34 36 36 34 33 33 36 37 38 39 38 36 35 33 32 32 31 32 35 37 40 44 46 45 43 46 48 42 36 36 37 37 38 34 26 22 23 25 26 25 25 25 24
26 31 37 44 42 33 36 44 46 47 50 52 55 56 51 47 47 47 46 46 48 47 47 47 45 42 41 39 38 39 39 37 37 38 38 38 39 39 33 28 27 27 30 33 34 33 34 34 34 33 30 31 35 36 38 40 37 34 34 33 32 31 31 34 36 37 40 42 41 44 49 47 39 35 36 38 39 39 36 32 28 27 27 28 27 27 26 25
25 26 28 34 35 29 30 39 44 47 50 53 56 56 52 47 44 44 44 44 45 45 45 45 44 41 40 40 41 41 38 37 36 34 32 31 31 32 30 27 27 27 27 29 32 36 36 34 35 34 29 30 33 33 36 35 26 24 34 37 36 38 38 39 40 39 38 37 38 42 46 43 39 38 39 41 41 39 36 33 30 29 30 31 30 29 28 27
Wind_Direction
200 201 204 204 202 202 202 202 203 203 203 205 206 206 206 206 204 203 198 194 195 193 195 197 196 195 196 198 200 201 206 211 206 204 210 202 192 197 195 188 188 194 186 183 187 184 182 180 181 183 185 185 183 183 184 186 188 191 194 196 199 201 199 197 194 195 203 200 193 192 192 195 196 193 192 194 194 192 189 187 183 182 183 183 181 181 185 183
199 199 203 203 201 201 202 202 203 203 204 205 207 207 205 204 203 201 196 194 195 194 195 197 197 198 200 202 202 202 205 209 209 209 208 196 192 191 187 187 190 192 190 187 188 188 185 182 183 185 187 187 186 186 186 188 190 194 196 197 200 199 194 191 190 190 194 190 188 189 189 193 196 195 195 197 198 197 194 192 189 186 185 185 183 185 187 187
198 198 201 202 199 200 201 202 203 204 204 206 207 206 204 202 202 200 195 194 194 195 196 197 200 202 205 206 205 205 206 210 215 212 203 202 195 179 178 190 192 192 194 193 189 189 189 187 187 186 188 190 189 189 189 190 193 197 197 198 199 196 189 188 190 189 188 188 189 189 187 190 193 194 193 195 199 200 197 196 195 191 188 188 188 189 190 190
197 196 199 199 198 199 200 201 202 203 203 205 206 205 202 200 201 199 195 194 195 196 197 197 200 204 207 209 209 208 210 215 218 211 203 212 196 173 177 191 194 197 196 195 193 191 191 191 190 188 190 193 193 192 193 194 195 198 198 199 197 193 189 188 190 189 186 186 191 194 190 189 193 193 192 193 197 197 197 198 197 195 193 192 193 195 194 194
196 195 197 196 196 197 199 200 201 202 202 204 205 204 201 199 200 199 195 193 195 197 198 200 200 204 207 209 211 209 211 216 221 214 207 218 197 173 179 192 198 202 197 196 196 193 193 192 193 192 192 195 195 195 197 197 198 200 200 198 196 193 191 190 192 190 186 180 184 195 195 192 193 192 191 193 194 193 194 195 195 196 195 192 194 198 198 198
196 194 195 194 194 195 196 198 200 200 201 202 202 202 200 198 200 198 195 193 195 198 200 203 202 205 205 206 210 210 211 213 221 217 211 217 195 174 180 198 203 204 198 199 197 194 193 192 194 194 195 197 197 197 198 199 200 201 202 200 197 197 193 192 194 193 189 180 180 191 194 194 191 189 189 191 191 193 194 193 195 196 195 193 195 197 198 200
197 192 192 192 192 193 194 196 198 199 199 200 200 200 198 197 200 197 194 192 194 198 200 203 203 204 204 203 206 211 215 213 218 217 212 210 189 174 190 206 206 205 199 200 198 196 195 193 194 194 196 200 200 199 199 201 203 203 204 203 200 200 197 195 197 197 194 188 186 190 196 195 189 187 187 187 192 195 193 193 198 197 194 197 199 198 199 200
196 191 189 189 190 190 191 193 195 196 197 198 198 198 197 197 199 196 194 193 194 199 201 203 203 203 202 203 205 211 217 211 215 218 209 200 184 177 199 212 210 205 201 200 198 197 196 195 194 194 197 202 202 201 201 203 206 206 205 205 204 204 201 200 200 200 201 200 197 192 198 198 190 188 183 185 194 196 193 194 198 197 195 198 200 201 202 201
195 189 187 187 188 188 189 191 191 193 195 197 197 197 196 196 197 196 194 193 195 199 201 202 202 202 201 201 203 211 214 207 213 215 200 192 184 182 200 214 213 206 203 202 198 197 197 195 193 194 198 203 204 203 203 204 209 209 207 209 209 208 207 205 205 206 208 210 210 203 205 202 195 190 185 191 195 194 195 194 194 194 194 197 199 200 201 202
194 187 186 185 186 186 187 188 188 191 193 195 196 195 194 195 197 195 193 193 196 198 199 201 200 200 199 198 202 207 206 199 201 199 191 189 186 187 197 211 215 207 205 202 198 198 197 195 193 194 199 204 206 206 205 205 210 211 209 213 213 213 212 212 212 213 214 216 217 217 215 208 201 195 193 199 196 193 196 194 193 191 192 195 197 198 199 201
193 186 184 184 184 184 185 186 187 190 192 194 195 194 192 194 196 194 192 193 195 196 197 198 197 197 196 198 204 203 195 189 186 182 184 186 187 189 195 208 213 206 205 202 198 197 195 195 194 194 199 205 206 207 207 206 209 211 212 216 217 216 216 217 219 219 221 220 221 223 223 216 207 200 202 205 198 194 198 195 193 192 192 196 197 197 199 201
193 186 183 183 182 182 184 185 187 189 191 193 193 192 192 193 195 193 192 192 194 195 194 194 193 192 193 196 199 195 188 184 179 176 181 185 187 192 198 206 211 205 203 201 198 197 195 196 196 195 199 205 206 206 208 207 209 212 213 217 220 220 220 220 222 224 225 224 226 227 230 225 209 199 208 210 200 195 197 197 196 196 196 198 199 200 200 203
193 185 182 181 181 182 183 185 187 188 190 192 192 192 192 192 194 192 190 191 192 193 192 190 189 189 191 190 185 186 188 185 179 177 183 187 188 196 204 207 208 205 202 200 199 198 196 195 197 197 198 203 205 205 207 206 207 211 214 218 220 222 224 223 223 227 226 226 228 227 231 230 211 201 213 213 205 200 199 199 199 200 201 201 203 204 204 207
193 185 181 180 180 181 183 186 186 188 189 191 192 192 192 191 192 191 190 191 191 191 190 187 187 188 189 188 181 184 189 186 182 180 185 189 189 199 208 206 205 205 202 200 200 199 198 196 197 198 198 201 205 206 206 204 205 209 211 216 219 219 223 224 224 227 227 227 229 228 233 233 218 211 217 216 209 205 204 204 203 203 205 206 206 208 209 211
192 184 181 179 180 181 183 186 185 187 189 189 191 191 191 191 192 191 190 191 190 189 189 187 189 189 189 193 190 188 191 189 184 183 186 189 191 202 209 205 206 204 202 201 201 200 200 198 198 200 200 199 203 205 206 204 205 206 205 212 216 216 222 225 225 227 229 230 231 231 235 233 224 219 220 220 215 210 209 209 209 207 208 210 210 211 211 213
192 185 181 179 180 181 183 184 185 187 188 188 190 190 191 191 192 191 190 191 189 188 190 191 192 191 195 201 200 196 195 192 188 187 189 188 192 205 210 206 206 204 202 201 202 202 201 200 200 200 200 201 201 202 204 204 204 205 205 210 215 215 221 225 225 229 231 233 233 232 234 232 226 222 219 221 218 213 213 213 213 212 211 212 213 214 214 214
192 186 182 179 179 182 183 183 185 186 187 188 188 189 190 190 192 192 191 191 190 190 192 195 196 198 205 208 206 203 198 193 190 190 190 190 196 207 211 208 206 204 202 201 203 203 202 203 202 202 201 202 203 200 199 199 198 200 202 208 215 217 222 226 227 229 231 234 235 235 236 232 227 226 223 224 220 214 213 215 217 215 213 214 214 214 214 215
194 188 182 180 180 181 182 183 185 185 186 187 187 189 189 189 191 192 192 191 192 192 194 199 200 203 212 212 208 204 198 194 192 191 192 194 200 209 210 210 207 205 203 202 204 204 203 205 204 204 204 203 204 202 199 202 202 200 201 208 217 221 224 228 230 230 230 233 235 237 238 233 229 232 230 227 224 218 215 217 219 217 214 214 214 214 214 214
196 188 182 181 181 180 182 183 184 185 186 186 186 187 187 187 188 190 193 193 194 195 196 201 202 202 210 212 208 204 199 196 192 192 195 197 202 209 210 211 207 205 205 204 206 206 205 205 206 207 207 204 204 205 206 212 213 212 213 215 220 222 224 227 228 230 231 234 237 239 241 237 232 234 234 230 227 223 218 219 221 220 218 216 215 214 214 214
195 188 183 181 181 181 181 182 184 185 187 188 188 187 186 186 185 186 191 195 198 200 201 204 204 205 209 210 208 204 200 198 193 193 197 199 204 210 213 213 208 206 207 207 208 209 208 209 211 210 210 208 207 208 211 215 217 219 222 223 224 224 226 228 228 230 233 237 241 243 245 243 234 231 233 234 231 226 222 221 222 223 221 219 217 214 214 213
194 188 184 182 181 181 181 182 184 186 188 190 191 191 191 190 189 189 189 191 197 202 205 206 206 207 210 211 208 202 200 198 194 195 198 202 207 211 214 214 211 208 206 208 211 212 212 215 217 216 214 212 211 212 212 213 215 216 221 226 228 227 228 230 230 232 234 238 241 242 245 244 235 229 230 234 234 227 222 223 223 224 224 223 222 217 215 213
192 188 184 182 181 181 181 182 184 185 187 190 193 195 195 195 196 196 191 188 191 197 202 203 203 203 204 207 205 200 200 198 194 196 200 204 209 213 215 215 214 212 209 209 211 213 217 220 220 219 217 215 214 215 213 212 214 216 220 225 228 228 228 229 230 231 232 236 240 242 244 243 237 234 230 230 235 230 223 223 222 223 225 224 225 220 217 216
190 188 184 182 181 181 182 183 183 185 187 189 192 194 195 194 194 195 193 188 186 192 197 199 199 199 197 200 200 198 199 198 196 198 200 204 210 214 217 218 218 216 213 213 213 214 219 223 222 220 219 218 217 217 215 215 216 219 221 222 225 226 225 226 228 229 231 235 240 244 248 247 243 241 234 229 235 234 228 226 224 224 225 226 226 224 220 218
189 187 184 182 182 182 183 183 183 185 186 188 190 191 191 191 189 190 190 186 184 188 193 195 196 195 195 196 197 196 198 200 199 200 200 203 210 214 217 219 220 219 218 218 219 221 224 226 225 223 222 221 220 219 218 219 221 222 221 221 225 226 225 227 230 231 233 237 243 248 259 257 248 243 237 230 233 236 233 230 227 226 227 227 227 225 222 220
188 187 184 182 182 184 184 184 185 185 185 186 188 188 187 188 187 186 186 183 182 187 190 190 192 193 193 193 194 195 196 199 200 201 201 204 211 216 216 218 220 221 221 220 222 226 227 227 227 225 223 222 222 222 220 220 224 227 226 224 224 226 226 228 230 231 234 239 242 242 257 263 251 243 239 232 231 234 235 232 229 227 229 229 228 226 224 222
188 187 184 183 184 184 184 185 185 184 184 186 186 183 183 185 183 182 182 179 181 189 189 188 189 192 192 191 190 190 193 197 198 199 201 206 213 216 216 218 220 220 220 220 222 226 226 226 226 225 224 223 222 223 222 221 224 228 229 226 225 225 224 226 227 226 229 235 240 235 231 256 258 247 240 236 234 233 235 234 230 227 228 230 229 228 226 225
188 187 185 185 186 186 186 186 185 184 184 185 183 180 180 182 180 177 174 168 189 196 192 189 190 192 193 191 186 185 190 194 193 195 200 205 210 213 216 219 218 219 218 215 217 223 224 223 224 224 224 225 224 223 222 220 223 228 230 228 227 230 230 232 232 230 233 237 241 236 230 246 262 250 240 238 236 234 235 235 232 229 229 229 229 228 229 229
188 188 187 186 187 188 189 188 186 186 185 182 180 177 177 178 177 174 166 144 195 195 194 194 192 192 194 192 188 187 191 192 190 193 198 202 206 209 214 220 220 220 220 217 218 223 226 224 225 225 224 226 227 227 224 221 223 227 231 231 230 234 234 236 239 237 237 239 239 235 227 234 257 251 244 241 239 235 234 235 234 233 232 230 229 229 230 231
188 188 188 187 188 188 188 189 189 187 183 180 178 174 173 173 170 170 169 181 187 188 194 195 193 192 193 193 193 192 191 191 191 193 196 200 204 207 213 218 220 222 223 224 225 226 227 227 228 227 228 230 230 230 227 224 226 228 230 233 233 234 231 228 231 229 226 230 235 232 224 223 261 257 249 243 242 238 236 236 236 236 236 234 231 230 231 232
189 189 189 188 189 188 185 186 188 185 182 180 177 173 170 168 167 166 175 202 186 186 191 192 194 193 190 192 195 195 192 191 193 192 193 199 203 206 212 215 217 221 223 225 226 227 227 226 226 225 226 229 229 229 226 223 225 227 228 227 224 224 218 212 212 211 214 232 233 229 225 222 259 267 254 247 245 243 241 238 237 237 237 236 234 233 233 233
192 191 191 190 190 189 186 184 184 184 182 179 175 172 169 167 170 169 185 192 184 185 189 191 195 194 193 194 194 195 194 191 193 194 194 197 201 203 207 208 207 210 218 221 221 224 225 225 225 225 225 225 225 224 224 223 221 222 223 217 205 193 189 192 195 197 206 233 223 222 223 220 230 251 255 253 250 248 244 239 236 237 238 238 236 236 236 236
193 192 192 191 190 190 189 185 182 182 182 178 174 172 170 167 175 188 189 185 186 192 192 192 194 194 195 196 195 194 193 190 192 196 198 199 201 203 205 206 203 198 205 211 212 215 219 223 224 225 226 225 222 219 216 217 216 216 215 205 188 156 164 188 185 197 227 239 207 210 210 219 238 245 246 249 252 251 245 238 234 235 237 238 238 238 238 238
192 194 192 191 191 190 188 186 183 182 181 178 174 174 171 165 188 198 190 184 190 197 194 193 194 194 193 193 195 194 191 191 193 195 200 203 204 206 207 210 210 207 208 208 207 206 210 222 223 223 226 224 222 217 212 211 209 209 207 198 185 159 158 194 182 234 257 238 218 210 208 235 250 254 253 247 245 245 240 231 228 231 234 236 238 239 240 241
192 193 193 191 191 189 188 186 184 184 182 178 177 175 172 179 200 198 194 192 191 192 193 193 191 191 192 193 195 194 191 192 194 195 199 202 204 206 206 209 211 214 215 211 209 207 205 220 222 221 224 223 222 219 220 222 215 210 209 203 196 191 187 190 193 206 202 191 203 200 204 237 238 250 258 248 239 235 231 224 224 231 235 236 237 238 239 240
192 192 194 192 191 189 187 186 185 185 182 179 179 177 178 195 202 198 198 197 189 183 187 191 190 188 189 194 196 195 194 193 194 198 201 203 205 207 208 209 209 211 212 207 205 206 208 219 223 221 222 223 222 220 221 223 215 208 205 204 204 203 202 187 182 197 156 128 195 203 220 239 234 237 247 240 235 234 234 235 235 239 241 238 237 237 238 240
194 191 193 193 192 190 187 185 185 186 185 181 179 182 191 199 202 201 200 197 191 182 178 180 188 186 185 193 195 194 198 198 196 197 201 206 210 211 211 213 212 212 212 209 205 204 206 216 223 220 218 217 216 214 213 211 208 204 199 201 206 208 209 205 174 187 182 189 219 214 233 246 248 253 248 237 234 230 229 234 233 236 239 236 237 238 240 242
196 193 192 193 192 191 188 185 184 185 186 185 184 190 199 202 203 203 201 197 193 184 175 174 183 187 186 191 194 194 196 199 198 198 200 204 209 212 213 215 217 217 218 216 213 213 213 217 223 221 216 215 212 209 208 208 207 202 200 204 208 208 215 219 197 130 178 232 237 218 236 248 248 255 255 243 237 231 226 227 228 231 234 235 236 239 242 245
192 194 194 193 190 190 189 185 185 185 185 188 192 198 202 204 206 205 203 200 193 186 183 179 182 189 191 192 193 194 195 196 198 200 201 203 208 213 212 213 217 218 221 221 218 218 217 215 220 219 214 213 211 208 206 206 208 206 206 209 206 200 210 209 196 165 198 218 265 229 239 248 242 239 243 230 217 224 230 233 237 239 241 243 241 240 243 246
188 189 193 193 188 188 188 185 184 184 185 190 198 203 204 205 208 208 206 203 194 188 189 187 186 190 194 197 196 195 196 199 200 201 203 205 210 214 212 213 218 218 219 221 220 219 217 213 214 214 211 208 206 207 206 205 206 206 209 210 206 206 207 202 203 209 199 197 247 239 236 251 252 250 249 247 235 234 241 243 244 245 246 246 244 240 240 242
187 187 191 194 189 185 186 185 183 183 188 195 200 205 206 206 207 207 206 204 199 194 192 194 194 192 194 198 199 198 199 202 204 204 206 209 211 215 214 213 217 219 219 219 220 221 219 216 215 209 205 204 205 208 211 212 209 205 206 205 205 207 202 201 212 216 212 198 219 240 247 253 259 260 254 247 238 236 242 245 244 242 240 239 239 237 236 239
185 186 189 191 188 184 181 182 182 185 193 200 202 204 207 207 207 206 204 204 203 202 199 198 200 198 196 197 199 201 201 203 206 207 210 213 213 217 218 215 215 218 218 215 216 218 217 217 216 207 200 204 210 214 215 216 215 212 212 210 208 208 201 195 211 216 218 220 208 225 274 260 256 256 244 237 247 253 249 244 240 238 234 233 236 237 235 237
184 185 187 184 185 185 182 182 185 190 196 201 203 204 207 209 208 207 205 204 204 206 204 201 201 203 201 200 200 202 203 205 208 209 212 216 217 219 221 219 216 217 219 218 217 219 218 217 214 209 209 210 213 216 214 214 216 216 218 217 216 213 209 208 211 216 216 219 228 242 284 263 258 259 264 268 273 266 239 225 234 237 233 232 234 237 237 238
188 186 183 180 184 187 184 183 186 192 197 201 203 205 206 207 208 207 207 205 203 206 206 205 204 203 204 204 203 203 205 207 210 214 216 219 221 221 222 222 219 218 220 220 218 216 216 216 210 202 208 212 212 218 218 216 215 216 219 221 221 220 220 219 223 228 217 209 222 221 253 260 261 264 269 273 266 230 219 234 243 238 235 234 234 236 238 239
189 184 179 180 183 186 188 187 188 193 199 201 201 204 206 207 207 208 208 206 205 206 207 208 207 206 206 207 208 208 208 208 212 217 219 220 223 223 222 224 222 220 221 222 221 218 214 212 206 189 170 204 212 217 217 216 217 220 222 223 223 224 225 222 224 230 225 221 225 213 240 259 262 265 267 262 236 227 238 249 245 233 233 236 236 238 239 239
186 179 176 179 179 181 189 197 196 195 197 199 200 202 204 205 206 209 209 208 208 208 208 209 210 210 209 208 209 212 212 213 216 218 220 223 226 226 224 225 225 223 224 225 228 227 219 213 210 201 179 186 204 211 218 220 220 221 223 224 224 225 224 223 222 222 225 233 227 217 240 256 259 263 263 251 233 238 243 246 249 246 242 239 236 239 243 243
183 174 171 176 179 180 188 198 200 198 198 198 199 201 202 201 202 205 207 208 209 211 211 211 211 211 210 209 208 210 211 215 218 220 222 225 227 228 227 225 224 224 224 223 225 228 223 218 219 217 215 219 226 232 235 231 225 224 227 227 226 226 226 224 219 218 227 232 228 231 245 254 257 259 257 246 237 247 258 266 268 262 252 245 236 235 241 243
184 179 175 177 183 188 191 195 198 201 202 201 200 201 201 201 199 198 200 204 208 210 210 212 212 210 210 210 208 208 209 211 216 220 223 226 229 230 229 228 225 221 219 219 221 223 222 221 224 224 226 231 235 239 240 235 230 232 235 233 230 227 226 223 220 225 231 227 229 241 246 250 255 256 255 254 256 262 269 274 273 261 249 244 239 236 239 241
183 182 182 182 184 193 196 196 197 201 204 203 202 202 201 202 200 197 198 201 204 207 207 208 212 214 215 213 210 208 207 210 216 220 222 225 228 228 228 227 225 222 217 212 217 221 221 222 228 229 232 236 238 238 238 236 235 237 237 237 235 231 227 225 226 231 231 226 236 249 250 251 257 262 263 266 268 269 271 272 268 258 247 241 241 242 244 245
182 180 183 186 188 194 198 199 198 202 205 205 204 203 202 202 202 201 202 201 201 203 205 206 209 212 214 215 214 211 209 211 217 219 219 222 224 226 226 224 222 221 216 209 211 217 218 222 230 233 236 238 238 237 239 239 239 238 238 239 240 239 236 235 237 239 236 236 246 255 255 256 262 267 268 270 270 268 266 262 253 249 246 241 241 245 249 250
183 179 181 185 189 195 199 199 199 203 207 206 205 205 204 203 202 202 203 203 201 201 205 209 210 209 209 211 214 217 220 225 228 227 222 221 223 225 226 225 225 222 217 211 208 211 215 219 225 231 235 237 236 236 238 238 240 241 241 240 240 241 242 242 244 243 238 240 248 252 254 257 259 261 262 264 265 264 263 258 248 242 243 243 244 247 249 249
188 181 181 186 189 193 198 199 199 201 204 205 206 206 204 203 202 202 203 205 206 205 206 209 209 208 209 210 214 221 228 234 237 236 232 229 228 227 226 229 233 228 220 215 211 210 213 217 219 222 229 236 236 235 237 237 239 239 238 238 238 238 239 240 242 243 239 241 247 248 250 255 255 255 258 260 262 263 263 261 252 241 240 243 245 247 245 243
202 189 184 187 191 195 199 200 200 201 204 207 207 207 205 202 201 202 204 206 208 209 210 211 210 209 211 214 219 224 227 230 233 235 236 237 236 235 235 238 242 240 233 224 217 214 215 217 217 216 221 232 235 236 238 237 235 234 233 237 241 242 244 245 245 245 244 244 247 248 250 256 260 260 261 261 263 264 264 265 260 251 249 248 244 243 243 241
Height
3042 3046 3051 3055 3061 3067 3072 3076 3080 3084 3087 3091 3094 3096 3099 3102 3105 3108 3110 3112 3114 3116 3118 3119 3121 3123 3126 3128 3130 3132 3134 3135 3137 3138 3141 3145 3146 3146 3147 3150 3155 3157 3157 3159 3161 3163 3164 3166 3168 3170 3172 3173 3175 3176 3178 3179 3181 3182 3183 3183 3184 3185 3186 3186 3187 3188 3188 3188 3189 3190 3191 3192 3193 3194 3195 3196 3197 3198 3199 3200 3200 3201 3202 3203 3204 3205 3206 3207
3038 3042 3047 3052 3058 3064 3069 3074 3078 3082 3085 3089 3092 3094 3097 3100 3103 3106 3109 3111 3113 3115 3117 3118 3120 3122 3125 3127 3129 3131 3132 3134 3135 3135 3140 3144 3144 3144 3147 3150 3153 3156 3157 3159 3161 3163 3164 3166 3167 3169 3171 3173 3174 3175 3177 3178 3180 3181 3182 3183 3184 3184 3185 3186 3186 3187 3187 3188 3188 3189 3190 3191 3192 3193 3194 3195 3196 3197 3198 3199 3200 3201 3202 3202 3203 3204 3205 3206
3034 3039 3044 3048 3054 3060 3066 3071 3075 3079 3083 3086 3090 3092 3095 3098 3102 3105 3107 3110 3112 3114 3116 3117 3119 3121 3124 3126 3128 3130 3131 3132 3131 3134 3140 3142 3142 3144 3147 3150 3153 3155 3157 3159 3160 3162 3164 3165 3166 3168 3170 3172 3173 3175 3176 3178 3179 3180 3181 3183 3183 3184 3185 3185 3186 3186 3187 3187 3188 3189 3189 3190 3191 3192 3193 3194 3196 3196 3197 3199 3200 3201 3202 3202 3203 3204 3205 3206
3030 3035 3040 3045 3051 3057 3063 3068 3073 3077 3081 3084 3087 3090 3093 3097 3100 3103 3106 3108 3111 3113 3115 3116 3118 3120 3122 3124 3127 3129 3130 3130 3129 3135 3139 3140 3141 3144 3147 3150 3152 3154 3156 3158 3159 3161 3163 3165 3166 3167 3169 3171 3173 3174 3175 3177 3178 3179 3181 3182 3183 3183 3184 3185 3185 3186 3187 3187 3188 3188 3189 3189 3190 3191 3192 3193 3194 3195 3197 3198 3200 3201 3201 3202 3202 3203 3204 3205
3027 3031 3037 3042 3048 3054 3059 3065 3070 3074 3078 3082 3085 3088 3092 3095 3098 3101 3104 3107 3109 3112 3113 3115 3117 3118 3121 3123 3125 3127 3128 3128 3130 3135 3137 3138 3141 3144 3147 3150 3152 3153 3155 3157 3159 3160 3162 3164 3165 3167 3168 3170 3172 3173 3174 3176 3177 3179 3180 3181 3182 3183 3184 3184 3185 3186 3186 3187 3187 3188 3188 3189 3189 3190 3191 3192 3194 3195 3196 3197 3198 3199 3199 3200 3201 3202 3203 3204
3023 3028 3033 3039 3045 3051 3056 3062 3067 3072 3076 3080 3083 3086 3090 3093 3096 3099 3102 3105 3108 3110 3112 3114 3115 3117 3119 3121 3123 3124 3125 3128 3130 3133 3135 3138 3140 3142 3146 3149 3151 3152 3154 3156 3157 3159 3161 3162 3164 3165 3167 3169 3171 3172 3174 3176 3177 3178 3179 3180 3182 3182 3183 3184 3185 3185 3186 3186 3187 3187 3188 3188 3189 3189 3190 3191 3193 3193 3194 3195 3196 3197 3198 3199 3199 3201 3202 3203
3020 3025 3030 3036 3042 3048 3053 3059 3064 3069 3073 3077 3081 3084 3088 3091 3094 3097 3100 3104 3106 3109 3111 3113 3114 3115 3117 3119 3121 3122 3124 3128 3130 3131 3133 3136 3139 3142 3145 3148 3150 3151 3153 3154 3156 3158 3160 3161 3163 3165 3167 3169 3170 3172 3173 3175 3176 3178 3179 3180 3181 3182 3183 3183 3184 3185 3185 3186 3186 3187 3187 3188 3188 3189 3189 3191 3191 3192 3193 3194 3195 3196 3197 3198 3199 3200 3201 3202
3017 3022 3027 3034 3040 3045 3051 3056 3062 3067 3071 3075 3079 3082 3086 3089 3092 3095 3099 3102 3105 3107 3110 3111 3112 3114 3116 3118 3120 3121 3123 3127 3129 3130 3132 3135 3138 3141 3144 3147 3149 3150 3152 3154 3156 3158 3159 3160 3162 3164 3166 3168 3170 3171 3173 3174 3176 3177 3178 3180 3181 3181 3182 3183 3183 3184 3185 3185 3186 3187 3187 3187 3187 3188 3189 3189 3190 3191 3192 3193 3194 3196 3197 3198 3199 3200 3200 3201
3015 3019 3025 3031 3037 3043 3048 3054 3059 3065 3069 3073 3076 3080 3083 3087 3090 3093 3097 3100 3103 3106 3108 3110 3111 3113 3115 3117 3119 3120 3123 3127 3129 3129 3132 3135 3137 3140 3143 3146 3147 3149 3151 3153 3155 3156 3157 3159 3162 3163 3165 3167 3169 3171 3172 3173 3175 3176 3178 3179 3180 3181 3181 3182 3183 3183 3184 3185 3186 3186 3187 3187 3187 3187 3188 3188 3189 3190 3191 3192 3193 3194 3196 3197 3198 3199 3200 3200
3012 3016 3022 3028 3034 3040 3046 3052 3057 3062 3067 3071 3074 3078 3081 3085 3088 3091 3095 3099 3102 3105 3107 3108 3110 3112 3114 3116 3118 3120 3123 3127 3128 3130 3132 3134 3136 3140 3143 3145 3146 3148 3150 3152 3153 3155 3157 3160 3161 3163 3164 3166 3168 3169 3170 3172 3173 3175 3177 3178 3179 3180 3180 3181 3182 3183 3183 3184 3185 3185 3186 3186 3186 3186 3187 3187 3188 3189 3190 3191 3192 3193 3195 3196 3197 3198 3199 3199
3010 3014 3019 3025 3032 3038 3044 3050 3055 3060 3064 3068 3072 3076 3079 3083 3086 3089 3093 3097 3100 3103 3105 3107 3109 3111 3113 3115 3117 3120 3123 3126 3128 3130 3131 3133 3136 3140 3142 3144 3145 3147 3149 3151 3153 3155 3157 3159 3159 3161 3162 3164 3166 3168 3169 3170 3172 3174 3176 3177 3178 3179 3179 3180 3181 3182 3183 3183 3184 3184 3185 3185 3185 3185 3186 3186 3188 3189 3190 3191 3192 3193 3193 3194 3196 3196 3197 3198
3008 3012 3017 3023 3030 3036 3042 3048 3052 3057 3062 3066 3070 3074 3077 3081 3084 3088 3092 3096 3099 3102 3104 3106 3109 3111 3113 3115 3116 3120 3123 3125 3127 3129 3131 3133 3136 3139 3141 3143 3144 3145 3147 3149 3151 3153 3155 3156 3158 3159 3161 3162 3164 3166 3167 3169 3171 3173 3175 3176 3177 3178 3178 3179 3180 3181 3182 3182 3183 3184 3184 3183 3184 3185 3185 3185 3187 3188 3189 3190 3191 3191 3192 3193 3194 3195 3196 3197
3006 3010 3015 3021 3028 3034 3040 3045 3050 3055 3060 3064 3068 3071 3075 3079 3083 3086 3090 3094 3098 3100 3103 3106 3108 3110 3112 3114 3116 3119 3122 3125 3127 3129 3131 3133 3135 3138 3140 3141 3143 3144 3146 3148 3150 3151 3153 3155 3156 3158 3159 3161 3163 3164 3165 3167 3169 3171 3173 3175 3176 3176 3177 3177 3178 3179 3180 3181 3182 3183 3183 3182 3183 3184 3184 3184 3186 3187 3188 3189 3190 3190 3191 3192 3193 3194 3195 3196
3004 3008 3013 3019 3025 3031 3038 3043 3048 3053 3058 3062 3065 3069 3073 3077 3081 3085 3089 3093 3096 3099 3102 3105 3107 3109 3111 3113 3115 3118 3121 3124 3126 3128 3130 3132 3135 3137 3139 3140 3142 3144 3145 3147 3149 3150 3152 3153 3155 3156 3157 3159 3161 3162 3164 3166 3167 3169 3171 3173 3173 3174 3175 3176 3177 3178 3179 3180 3180 3182 3181 3181 3182 3183 3182 3184 3185 3186 3187 3188 3188 3189 3190 3191 3192 3193 3194 3195
3002 3007 3011 3017 3023 3029 3035 3040 3046 3050 3055 3059 3063 3067 3071 3076 3079 3083 3087 3091 3095 3098 3101 3103 3104 3107 3110 3111 3114 3117 3119 3122 3125 3127 3129 3132 3134 3136 3138 3139 3141 3143 3144 3145 3147 3149 3150 3152 3153 3154 3156 3157 3159 3161 3163 3164 3165 3166 3169 3170 3170 3173 3174 3174 3176 3176 3177 3178 3179 3180 3180 3180 3181 3181 3182 3183 3184 3185 3185 3186 3187 3188 3189 3190 3191 3192 3193 3194
3001 3005 3010 3015 3021 3027 3032 3038 3043 3048 3052 3057 3061 3065 3069 3073 3077 3081 3085 3089 3093 3096 3098 3100 3102 3106 3108 3110 3112 3114 3117 3120 3123 3126 3128 3131 3133 3135 3137 3138 3140 3141 3143 3144 3146 3147 3149 3150 3151 3152 3154 3156 3157 3159 3162 3163 3163 3164 3166 3167 3168 3171 3172 3173 3174 3175 3176 3177 3178 3178 3178 3178 3180 3180 3181 3182 3182 3183 3184 3185 3186 3186 3187 3188 3189 3190 3191 3192
2999 3004 3008 3013 3018 3024 3030 3035 3040 3045 3050 3054 3058 3062 3066 3071 3075 3079 3083 3087 3091 3094 3097 3100 3103 3106 3107 3107 3108 3111 3114 3118 3121 3124 3127 3130 3132 3134 3135 3137 3139 3140 3141 3143 3144 3145 3147 3148 3149 3151 3152 3154 3156 3158 3159 3159 3159 3160 3163 3165 3168 3170 3171 3172 3173 3173 3174 3175 3176 3176 3176 3177 3178 3179 3180 3180 3181 3182 3183 3183 3184 3185 3186 3187 3188 3189 3190 3191
2997 3002 3007 3011 3016 3022 3027 3032 3037 3042 3047 3051 3055 3060 3064 3068 3073 3076 3080 3084 3088 3092 3096 3098 3100 3102 3101 3100 3104 3108 3113 3117 3120 3123 3126 3128 3130 3132 3134 3136 3137 3139 3140 3141 3143 3144 3145 3146 3148 3150 3150 3152 3153 3154 3155 3154 3156 3159 3162 3165 3167 3169 3169 3170 3171 3172 3172 3173 3174 3175 3174 3175 3177 3178 3179 3179 3179 3180 3181 3181 3182 3183 3184 3185 3186 3187 3188 3189
2995 3000 3005 3010 3014 3019 3024 3030 3035 3039 3043 3048 3052 3056 3061 3066 3070 3074 3078 3080 3082 3085 3087 3087 3089 3091 3092 3096 3103 3108 3112 3115 3118 3121 3124 3127 3129 3131 3132 3134 3136 3137 3139 3140 3141 3142 3143 3145 3146 3146 3147 3148 3149 3151 3153 3155 3158 3161 3163 3164 3165 3166 3167 3168 3169 3170 3171 3172 3172 3173 3173 3174 3176 3177 3177 3177 3178 3178 3179 3179 3180 3181 3182 3183 3184 3185 3186 3187
2994 2999 3003 3008 3013 3017 3022 3028 3032 3037 3040 3044 3047 3051 3055 3058 3063 3068 3072 3076 3078 3079 3079 3080 3085 3089 3092 3097 3103 3106 3110 3113 3116 3119 3122 3125 3127 3129 3131 3133 3134 3136 3137 3138 3139 3141 3142 3143 3143 3143 3144 3147 3149 3152 3155 3157 3160 3161 3162 3163 3164 3165 3165 3166 3167 3168 3170 3171 3171 3171 3171 3171 3173 3174 3175 3175 3175 3176 3176 3177 3178 3179 3180 3181 3182 3183 3185 3186
2992 2997 3002 3007 3012 3016 3021 3025 3030 3034 3038 3042 3045 3048 3050 3052 3054 3057 3062 3069 3074 3077 3079 3082 3087 3091 3094 3098 3101 3105 3108 3110 3114 3118 3121 3123 3126 3128 3129 3131 3132 3133 3135 3136 3138 3140 3141 3140 3140 3143 3146 3149 3151 3153 3155 3157 3158 3160 3161 3162 3163 3164 3164 3165 3166 3167 3169 3169 3169 3169 3169 3169 3170 3172 3173 3173 3172 3173 3174 3175 3176 3177 3178 3179 3180 3182 3183 3184
2991 2996 3000 3006 3011 3015 3019 3023 3028 3032 3036 3040 3044 3047 3050 3053 3055 3057 3060 3065 3071 3076 3080 3083 3087 3091 3095 3098 3100 3103 3106 3108 3112 3115 3118 3121 3123 3126 3127 3129 3131 3132 3134 3135 3136 3138 3138 3138 3140 3144 3147 3149 3151 3152 3154 3155 3157 3158 3159 3160 3161 3162 3163 3164 3165 3166 3167 3167 3167 3167 3166 3166 3167 3169 3170 3170 3169 3171 3172 3173 3174 3175 3175 3176 3178 3179 3181 3182
2990 2995 3000 3005 3010 3015 3018 3022 3026 3030 3034 3038 3042 3046 3050 3054 3058 3062 3064 3067 3071 3076 3080 3083 3087 3091 3095 3097 3099 3101 3104 3106 3109 3111 3115 3119 3121 3124 3126 3128 3130 3131 3133 3133 3134 3135 3135 3137 3140 3143 3146 3148 3149 3151 3152 3154 3155 3156 3157 3158 3159 3160 3162 3163 3163 3164 3165 3165 3165 3165 3164 3163 3164 3166 3167 3168 3168 3168 3170 3171 3172 3173 3173 3175 3176 3177 3178 3179
2988 2993 2999 3004 3009 3013 3016 3021 3025 3029 3033 3037 3041 3045 3049 3053 3057 3061 3065 3069 3072 3076 3079 3083 3087 3090 3093 3096 3098 3100 3102 3105 3108 3110 3113 3117 3120 3123 3125 3127 3129 3130 3131 3132 3133 3134 3135 3137 3141 3143 3145 3146 3148 3149 3151 3153 3154 3154 3156 3157 3158 3159 3161 3161 3162 3163 3163 3163 3163 3164 3164 3160 3161 3163 3164 3165 3165 3166 3168 3168 3169 3171 3172 3173 3174 3175 3176 3177
2986 2992 2997 3003 3007 3011 3016 3020 3023 3027 3032 3035 3039 3044 3048 3052 3056 3061 3065 3069 3073 3076 3079 3082 3085 3088 3091 3094 3096 3098 3101 3104 3107 3110 3113 3116 3119 3121 3124 3126 3127 3128 3129 3131 3133 3133 3135 3137 3140 3141 3143 3144 3146 3147 3149 3151 3152 3153 3154 3155 3157 3159 3160 3160 3161 3161 3162 3161 3161 3164 3163 3158 3157 3160 3161 3162 3163 3163 3165 3166 3167 3169 3169 3170 3171 3173 3174 3175
2984 2990 2996 3001 3004 3009 3013 3016 3021 3026 3030 3033 3038 3043 3047 3051 3056 3060 3064 3069 3072 3074 3077 3080 3083 3086 3089 3092 3094 3097 3100 3102 3105 3108 3111 3115 3117 3119 3122 3123 3125 3126 3128 3130 3132 3131 3133 3136 3138 3139 3141 3142 3144 3145 3147 3150 3151 3151 3152 3154 3156 3157 3158 3158 3159 3160 3160 3159 3159 3161 3161 3157 3154 3156 3157 3158 3159 3160 3162 3163 3165 3166 3167 3168 3169 3170 3171 3172
2982 2988 2993 2998 3002 3006 3009 3013 3018 3023 3026 3031 3037 3042 3046 3051 3056 3059 3065 3071 3071 3070 3074 3077 3080 3082 3085 3089 3092 3094 3096 3097 3101 3105 3108 3111 3114 3117 3119 3120 3122 3124 3126 3128 3129 3128 3130 3133 3135 3137 3139 3140 3141 3142 3145 3148 3149 3149 3150 3153 3155 3155 3156 3157 3158 3158 3158 3158 3158 3158 3159 3157 3153 3152 3154 3156 3157 3158 3159 3160 3162 3164 3164 3165 3167 3168 3169 3170
2981 2986 2991 2996 3001 3005 3009 3013 3017 3020 3025 3030 3036 3041 3046 3050 3055 3059 3064 3069 3067 3066 3070 3074 3077 3080 3083 3087 3090 3092 3093 3095 3098 3101 3104 3109 3111 3114 3116 3118 3121 3123 3124 3126 3126 3127 3129 3131 3133 3135 3137 3138 3139 3141 3144 3147 3148 3148 3150 3152 3153 3154 3155 3155 3156 3157 3157 3157 3157 3155 3157 3157 3150 3148 3152 3153 3154 3155 3156 3157 3159 3160 3161 3162 3164 3165 3166 3167
2979 2984 2989 2994 2999 3004 3011 3016 3019 3023 3028 3032 3036 3041 3046 3050 3056 3060 3063 3064 3061 3062 3066 3070 3074 3077 3081 3085 3087 3089 3091 3093 3095 3098 3102 3106 3108 3111 3114 3117 3120 3121 3123 3124 3125 3126 3128 3130 3132 3134 3136 3137 3138 3141 3143 3145 3146 3147 3149 3150 3152 3153 3153 3154 3155 3155 3156 3156 3154 3153 3154 3154 3148 3144 3149 3150 3150 3152 3154 3156 3157 3157 3158 3159 3160 3162 3163 3164
2977 2982 2987 2991 2996 3001 3007 3013 3019 3024 3028 3032 3037 3041 3046 3051 3054 3059 3062 3059 3056 3059 3063 3066 3070 3073 3077 3080 3083 3086 3089 3091 3094 3096 3099 3103 3106 3109 3112 3115 3118 3120 3122 3123 3124 3125 3127 3129 3130 3132 3133 3134 3137 3139 3141 3143 3144 3145 3147 3148 3150 3151 3151 3153 3153 3154 3156 3153 3150 3151 3152 3153 3148 3142 3144 3147 3148 3150 3152 3154 3154 3154 3155 3156 3157 3158 3160 3161
2975 2980 2985 2990 2995 2999 3004 3008 3015 3021 3025 3029 3035 3040 3044 3049 3052 3054 3055 3053 3053 3056 3059 3062 3066 3069 3072 3074 3077 3081 3085 3088 3092 3093 3095 3099 3102 3105 3108 3111 3114 3117 3120 3120 3121 3123 3125 3127 3128 3129 3130 3132 3134 3137 3138 3140 3141 3143 3145 3146 3149 3150 3151 3153 3153 3154 3153 3148 3147 3148 3150 3152 3147 3140 3141 3145 3146 3148 3149 3150 3151 3151 3151 3152 3154 3155 3156 3157
2974 2979 2984 2990 2995 3000 3005 3009 3013 3019 3024 3028 3033 3037 3040 3046 3049 3048 3047 3048 3050 3051 3052 3056 3060 3064 3068 3071 3075 3078 3082 3086 3089 3091 3093 3095 3098 3101 3104 3106 3109 3113 3115 3116 3118 3121 3122 3124 3125 3126 3128 3129 3132 3134 3136 3137 3138 3140 3142 3144 3146 3148 3150 3151 3151 3151 3149 3146 3146 3147 3148 3148 3142 3137 3140 3143 3144 3146 3146 3147 3148 3148 3149 3150 3151 3152 3153 3154
2972 2977 2983 2989 2994 2999 3004 3010 3014 3018 3022 3028 3033 3035 3039 3042 3041 3039 3040 3042 3043 3044 3047 3052 3056 3061 3066 3070 3073 3076 3080 3084 3086 3089 3092 3094 3097 3099 3102 3105 3107 3109 3111 3114 3117 3119 3121 3122 3122 3124 3125 3127 3129 3131 3132 3133 3134 3136 3138 3140 3142 3144 3148 3148 3148 3149 3147 3144 3145 3146 3148 3144 3137 3135 3138 3140 3142 3144 3144 3144 3145 3146 3147 3148 3148 3149 3150 3151
2970 2975 2980 2986 2991 2997 3002 3008 3012 3016 3020 3026 3030 3033 3038 3037 3033 3033 3037 3038 3039 3041 3045 3050 3054 3060 3065 3067 3069 3073 3078 3081 3084 3086 3089 3091 3094 3096 3099 3102 3105 3107 3110 3112 3115 3117 3119 3119 3119 3121 3123 3124 3126 3128 3129 3131 3132 3134 3135 3138 3139 3139 3142 3143 3143 3144 3143 3142 3144 3146 3145 3138 3134 3134 3135 3137 3139 3140 3141 3143 3143 3144 3145 3145 3146 3146 3147 3147
2967 2973 2978 2983 2987 2993 2999 3005 3010 3015 3019 3022 3027 3030 3031 3027 3025 3028 3030 3033 3036 3039 3043 3048 3053 3058 3063 3066 3069 3072 3074 3077 3081 3084 3086 3087 3089 3091 3094 3097 3100 3104 3106 3109 3111 3113 3115 3115 3116 3118 3120 3122 3125 3126 3128 3130 3131 3132 3134 3136 3137 3137 3138 3139 3140 3140 3140 3142 3142 3142 3138 3132 3131 3133 3134 3136 3136 3137 3139 3140 3141 3142 3142 3143 3143 3143 3144 3144
2964 2970 2976 2981 2985 2990 2996 3002 3007 3013 3017 3019 3023 3024 3019 3016 3018 3021 3024 3029 3033 3034 3039 3047 3053 3056 3060 3064 3067 3069 3072 3075 3078 3081 3083 3085 3087 3089 3092 3094 3097 3100 3102 3105 3107 3110 3112 3113 3114 3116 3117 3120 3122 3123 3125 3127 3128 3130 3132 3132 3133 3136 3137 3138 3139 3140 3140 3140 3137 3136 3133 3130 3131 3132 3132 3135 3135 3136 3137 3137 3138 3140 3140 3141 3141 3141 3142 3142
2961 2966 2972 2977 2983 2988 2993 2999 3004 3010 3015 3018 3018 3014 3011 3012 3015 3019 3023 3028 3032 3035 3038 3043 3048 3052 3055 3058 3062 3065 3068 3072 3075 3077 3080 3082 3084 3086 3089 3092 3095 3097 3100 3103 3105 3107 3110 3112 3113 3114 3116 3117 3120 3121 3123 3124 3125 3126 3128 3129 3132 3135 3136 3137 3138 3139 3140 3138 3134 3132 3130 3129 3131 3130 3130 3132 3133 3135 3136 3136 3137 3138 3138 3139 3139 3140 3140 3139
2957 2963 2969 2974 2979 2985 2990 2996 3002 3007 3012 3016 3014 3009 3009 3013 3015 3018 3023 3026 3031 3035 3036 3038 3043 3048 3051 3053 3057 3061 3065 3068 3071 3074 3076 3078 3079 3081 3085 3088 3091 3094 3098 3101 3103 3105 3107 3109 3111 3112 3114 3116 3118 3120 3121 3122 3123 3124 3125 3127 3131 3133 3133 3134 3135 3136 3137 3136 3132 3129 3128 3127 3127 3127 3128 3130 3131 3133 3135 3135 3135 3136 3137 3137 3138 3138 3138 3137
2955 2961 2966 2970 2976 2982 2987 2993 2999 3004 3009 3010 3007 3006 3007 3011 3014 3018 3022 3025 3030 3033 3035 3037 3040 3044 3048 3051 3054 3058 3062 3064 3067 3070 3073 3075 3076 3077 3082 3085 3088 3091 3095 3098 3100 3102 3104 3107 3108 3110 3111 3114 3115 3116 3117 3118 3120 3123 3125 3127 3128 3129 3129 3130 3131 3130 3131 3132 3130 3127 3126 3123 3122 3124 3127 3129 3130 3132 3133 3133 3134 3135 3135 3135 3135 3136 3136 3135
2952 2957 2962 2967 2972 2977 2984 2991 2996 3001 3003 3000 2999 3000 3004 3008 3012 3016 3020 3025 3028 3030 3032 3035 3037 3040 3045 3049 3052 3056 3059 3062 3065 3068 3070 3072 3074 3075 3079 3083 3086 3089 3092 3095 3098 3100 3103 3104 3106 3108 3110 3111 3112 3112 3113 3115 3117 3119 3121 3122 3124 3125 3127 3127 3128 3128 3128 3129 3129 3127 3123 3119 3119 3122 3125 3127 3128 3129 3130 3131 3132 3133 3133 3133 3133 3133 3134 3133
2949 2953 2959 2964 2969 2973 2979 2986 2990 2994 2994 2993 2995 2998 3002 3006 3010 3015 3019 3023 3026 3028 3030 3034 3036 3039 3041 3045 3050 3053 3057 3060 3063 3066 3067 3069 3071 3072 3075 3079 3082 3085 3089 3091 3094 3097 3100 3102 3103 3105 3106 3108 3109 3110 3112 3113 3115 3116 3117 3118 3119 3121 3123 3125 3125 3125 3126 3126 3126 3125 3121 3116 3118 3122 3123 3125 3126 3127 3128 3128 3129 3130 3130 3131 3131 3131 3132 3132
2945 2949 2955 2961 2965 2970 2974 2979 2984 2987 2988 2989 2993 2996 3000 3004 3009 3013 3017 3021 3024 3027 3030 3033 3035 3038 3040 3043 3046 3050 3054 3057 3060 3062 3064 3065 3066 3069 3073 3077 3080 3082 3085 3087 3090 3093 3097 3099 3101 3102 3104 3106 3107 3108 3109 3111 3113 3115 3115 3117 3118 3119 3121 3121 3121 3121 3123 3123 3124 3125 3122 3115 3116 3121 3121 3123 3124 3125 3126 3127 3127 3128 3129 3129 3129 3129 3130 3130
2942 2947 2954 2959 2963 2967 2972 2975 2980 2984 2984 2986 2990 2994 2998 3002 3006 3011 3014 3018 3021 3024 3027 3030 3033 3036 3039 3041 3044 3047 3050 3054 3056 3058 3060 3062 3065 3068 3072 3075 3077 3080 3083 3085 3087 3091 3094 3097 3098 3101 3103 3104 3105 3106 3108 3109 3111 3112 3113 3114 3116 3116 3117 3118 3118 3119 3120 3121 3122 3125 3121 3113 3114 3119 3119 3120 3122 3123 3124 3125 3126 3127 3127 3127 3128 3128 3128 3128
2940 2946 2953 2958 2961 2965 2968 2969 2971 2974 2977 2982 2987 2991 2996 3000 3004 3007 3010 3014 3017 3020 3023 3027 3030 3033 3036 3039 3043 3046 3049 3052 3054 3056 3059 3061 3063 3066 3070 3072 3075 3077 3079 3082 3085 3088 3091 3092 3095 3098 3102 3104 3105 3105 3105 3107 3108 3108 3109 3110 3111 3113 3114 3116 3117 3118 3118 3118 3119 3121 3117 3110 3112 3117 3117 3118 3121 3121 3122 3123 3124 3125 3125 3125 3126 3125 3126 3126
2939 2944 2949 2954 2957 2960 2963 2965 2966 2968 2972 2978 2984 2988 2993 2997 3001 3004 3008 3011 3015 3017 3021 3024 3027 3031 3034 3038 3042 3045 3047 3050 3051 3054 3056 3058 3060 3064 3067 3070 3072 3075 3077 3081 3084 3086 3087 3087 3089 3092 3096 3098 3100 3099 3100 3102 3104 3104 3104 3105 3107 3109 3110 3112 3114 3115 3115 3115 3116 3116 3113 3109 3110 3113 3114 3116 3118 3119 3120 3121 3122 3123 3124 3124 3124 3123 3123 3124
2937 2941 2944 2950 2953 2955 2958 2963 2967 2969 2970 2975 2981 2985 2990 2994 2998 3002 3006 3009 3012 3015 3019 3022 3025 3029 3032 3035 3038 3041 3044 3047 3049 3050 3053 3054 3057 3060 3064 3067 3069 3072 3075 3077 3081 3084 3085 3084 3085 3087 3088 3090 3091 3093 3095 3097 3098 3098 3099 3101 3103 3104 3106 3109 3110 3110 3111 3111 3111 3111 3110 3108 3107 3110 3112 3113 3115 3117 3118 3119 3120 3121 3121 3121 3122 3122 3121 3121
2935 2937 2940 2944 2949 2952 2954 2958 2963 2967 2969 2972 2977 2981 2986 2991 2995 2999 3003 3006 3009 3012 3016 3019 3022 3024 3027 3030 3034 3037 3041 3044 3045 3047 3049 3052 3055 3057 3061 3064 3066 3069 3072 3074 3076 3079 3081 3081 3082 3084 3085 3086 3088 3090 3092 3092 3093 3094 3096 3097 3098 3100 3102 3104 3105 3105 3107 3108 3107 3106 3108 3105 3102 3106 3109 3110 3112 3114 3115 3116 3117 3118 3119 3119 3120 3120 3119 3119
2933 2936 2938 2941 2943 2945 2948 2951 2956 2962 2966 2970 2975 2979 2983 2988 2991 2995 2998 3002 3006 3009 3012 3015 3017 3020 3023 3026 3030 3034 3038 3041 3043 3044 3046 3049 3051 3054 3057 3060 3063 3065 3068 3070 3071 3073 3077 3079 3080 3082 3082 3084 3086 3088 3088 3089 3090 3092 3093 3093 3094 3096 3097 3099 3100 3101 3103 3104 3102 3102 3104 3101 3099 3103 3107 3108 3110 3112 3113 3114 3115 3115 3116 3117 3117 3118 3118 3118
2933 2934 2937 2939 2940 2942 2945 2948 2954 2959 2963 2968 2972 2976 2979 2983 2987 2990 2994 2997 3001 3005 3007 3010 3012 3016 3020 3024 3027 3030 3033 3035 3037 3039 3042 3045 3048 3050 3053 3056 3058 3061 3064 3066 3067 3069 3072 3075 3077 3080 3080 3081 3083 3084 3085 3087 3088 3088 3090 3091 3092 3093 3094 3096 3097 3099 3100 3099 3099 3099 3099 3097 3097 3101 3104 3105 3107 3108 3109 3111 3112 3112 3113 3114 3115 3115 3116 3117
2932 2934 2935 2937 2939 2941 2944 2948 2953 2957 2961 2965 2969 2972 2976 2980 2984 2988 2990 2993 2996 2999 3002 3005 3009 3014 3018 3021 3024 3026 3028 3030 3032 3035 3039 3042 3044 3047 3050 3052 3055 3058 3061 3063 3065 3066 3068 3070 3073 3077 3078 3078 3079 3081 3082 3083 3084 3085 3086 3087 3089 3091 3093 3094 3095 3096 3096 3095 3095 3096 3095 3093 3094 3098 3100 3100 3102 3103 3105 3107 3109 3110 3110 3110 3111 3112 3113 3114
2930 2932 2933 2935 2937 2940 2943 2946 2951 2955 2958 2961 2964 2967 2972 2977 2981 2985 2988 2991 2994 2996 2998 3002 3007 3012 3016 3019 3021 3023 3026 3030 3032 3035 3038 3040 3042 3044 3047 3050 3053 3055 3058 3060 3062 3064 3066 3067 3069 3074 3076 3074 3076 3078 3078 3079 3081 3080 3080 3083 3085 3087 3088 3089 3089 3090 3091 3091 3092 3093 3090 3089 3091 3095 3096 3095 3096 3098 3100 3103 3105 3106 3107 3107 3108 3109 3110 3111
2928 2929 2931 2934 2936 2938 2941 2945 2949 2952 2954 2956 2960 2964 2969 2974 2979 2983 2986 2989 2992 2995 2998 3002 3006 3010 3013 3016 3018 3021 3025 3028 3031 3034 3037 3040 3042 3044 3047 3049 3051 3053 3055 3057 3059 3060 3062 3063 3065 3069 3071 3071 3073 3075 3075 3077 3077 3074 3074 3079 3081 3082 3083 3084 3084 3085 3087 3088 3089 3087 3086 3086 3089 3091 3092 3091 3091 3093 3096 3099 3101 3102 3103 3103 3104 3105 3106 3108